Seldovia, AK

5:38 AM AKDT on April 27, 2017 (GMT -0800)
Seldovia

Weather History for PASO - December, 2012

Change the Weather History Date:

Friday, December 14, 2012

  Actual Average (PAHO) Record (PAHO)
Temperature  
Mean Temperature 30 °F -  
Max Temperature 33 °F 29 °F 45 °F (1985)
Min Temperature 26 °F 18 °F -13 °F (1946)
Degree Days  
Heating Degree Days 35    
Moisture  
Dew Point 25 °F    
Average Humidity 81    
Maximum Humidity 93    
Minimum Humidity 74    
Precipitation  
Precipitation 0.00 in - - ()
Sea Level Pressure  
Sea Level Pressure 29.21 in    
Wind  
Wind Speed 3 mph (NNE)    
Max Wind Speed 8 mph    
Max Gust Speed -    
Visibility 10 miles    
Events      
Averages and records for this station are not official NWS values.
T = Trace of Precipitation, MM = Missing Value Source: NWS Daily Summary

Daily Weather History Graph

Daily Weather History Graph

Search for Another Location

Airport or City:

Trip Planner

Search our weather history database for the weather conditions in past years. The results will help you decide how hot, cold, wet, or windy it might be!

Date:

Astronomy

Dec. 14, 2012 Rise Set
Actual Time 9:58 AM AKST 4:05 PM AKST
Civil Twilight 9:02 AM AKST 5:00 PM AKST
Nautical Twilight 8:07 AM AKST 5:56 PM AKST
Astronomical Twilight 7:16 AM AKST 6:46 PM AKST
Moon 10:53 AM AKST (12/14) 6:32 PM AKST (12/14)
Length of Visible Light 7h 57m
Length of Day
6h 06m
Waxing Crescent, 3% of the Moon is Illuminated
Dec 14
Waxing Crescent
Dec 19
First Quarter
Dec 28
Full
Jan 4
Last Quarter
Jan 11
New

Hourly Weather History & Observations

Time (AKST) Temp. Windchill Dew Point Humidity Pressure Visibility Wind Dir Wind Speed Gust Speed Precip Events Conditions
12:11 AM 32.0 °F - 26.6 °F 80% 29.29 in 10.0 mi Calm Calm - N/A   Overcast
12:53 AM 32.0 °F - 27.0 °F 82% 29.29 in 10.0 mi Calm Calm - N/A   Overcast
1:28 AM 32.0 °F 28.7 °F 26.6 °F 80% 29.28 in 10.0 mi South 3.5 mph - N/A   Overcast
1:53 AM 33.1 °F - 27.0 °F 78% 29.27 in 10.0 mi Calm Calm - N/A   Overcast
2:17 AM 33.8 °F 30.8 °F 26.6 °F 75% 29.26 in 10.0 mi South 3.5 mph - N/A   Overcast
2:49 AM 33.8 °F 30.8 °F 26.6 °F 75% 29.26 in 10.0 mi South 3.5 mph - N/A   Overcast
3:53 AM 30.0 °F - 26.1 °F 85% 29.25 in 10.0 mi Calm Calm - N/A   Mostly Cloudy
4:53 AM 28.9 °F - 26.1 °F 89% 29.24 in 10.0 mi Calm Calm - N/A   Clear
5:27 AM 28.4 °F - 26.6 °F 93% 29.24 in 10.0 mi Calm Calm - N/A   Overcast
5:53 AM 30.0 °F - 26.1 °F 85% 29.24 in 10.0 mi Calm Calm - 0.00 in   Mostly Cloudy
6:53 AM 32.0 °F 27.5 °F 28.9 °F 88% 29.24 in 10.0 mi NNE 4.6 mph - 0.00 in   Overcast
7:53 AM 32.0 °F 28.7 °F 28.9 °F 88% 29.23 in 10.0 mi North 3.5 mph - N/A   Overcast
8:53 AM 30.9 °F 26.2 °F 28.0 °F 89% 29.24 in 10.0 mi NNE 4.6 mph - N/A   Overcast
9:39 AM 30.2 °F - 26.6 °F 86% 29.23 in 10.0 mi Calm Calm - N/A   Overcast
9:53 AM 30.0 °F - 26.1 °F 85% 29.24 in 10.0 mi Calm Calm - N/A   Overcast
10:26 AM 30.2 °F - 24.8 °F 80% 29.23 in 10.0 mi Calm Calm - N/A   Overcast
10:53 AM 30.0 °F - 25.0 °F 82% 29.23 in 10.0 mi Calm Calm - N/A   Overcast
11:44 AM 30.2 °F 25.4 °F 26.6 °F 86% 29.22 in 10.0 mi NNE 4.6 mph - N/A   Overcast
11:53 AM 30.0 °F 22.4 °F 26.1 °F 85% 29.23 in 10.0 mi NNE 8.1 mph - N/A   Overcast
12:53 PM 30.0 °F 26.5 °F 25.0 °F 82% 29.22 in 10.0 mi NE 3.5 mph - N/A   Overcast
1:06 PM 30.2 °F 26.7 °F 24.8 °F 80% 29.21 in 10.0 mi NNE 3.5 mph - N/A   Overcast
1:53 PM 30.9 °F 24.3 °F 26.1 °F 82% 29.21 in 10.0 mi North 6.9 mph - N/A   Overcast
2:08 PM 30.2 °F 24.3 °F 26.6 °F 86% 29.20 in 10.0 mi NNE 5.8 mph - N/A   Overcast
2:53 PM 30.9 °F 23.5 °F 25.0 °F 79% 29.20 in 10.0 mi NNE 8.1 mph - N/A   Overcast
3:53 PM 30.0 °F 23.2 °F 24.1 °F 79% 29.19 in 10.0 mi NNE 6.9 mph - N/A   Overcast
4:53 PM 28.9 °F 22.8 °F 23.0 °F 78% 29.18 in 10.0 mi NNE 5.8 mph - N/A   Overcast
5:22 PM 28.4 °F 23.3 °F 23.0 °F 80% 29.18 in 10.0 mi NNE 4.6 mph - N/A   Overcast
5:53 PM 28.9 °F 22.8 °F 23.0 °F 78% 29.18 in 10.0 mi NNE 5.8 mph - N/A   Overcast
6:53 PM 28.0 °F - 21.9 °F 78% 29.17 in 10.0 mi Calm Calm - N/A   Overcast
7:53 PM 28.0 °F - 21.9 °F 78% 29.16 in 10.0 mi Calm Calm - N/A   Overcast
8:53 PM 28.0 °F 20.0 °F 23.0 °F 81% 29.16 in 10.0 mi NNE 8.1 mph - N/A   Overcast
9:19 PM 28.4 °F 22.2 °F 21.2 °F 74% 29.15 in 10.0 mi North 5.8 mph - N/A   Mostly Cloudy
9:27 PM 28.4 °F 21.2 °F 21.2 °F 74% 29.15 in 10.0 mi NNE 6.9 mph - N/A   Scattered Clouds
9:53 PM 28.0 °F 21.7 °F 21.9 °F 78% 29.15 in 10.0 mi North 5.8 mph - N/A   Scattered Clouds
10:16 PM 28.4 °F 22.2 °F 21.2 °F 74% 29.14 in 10.0 mi North 5.8 mph - N/A   Mostly Cloudy
10:24 PM 28.4 °F 21.2 °F 21.2 °F 74% 29.14 in 10.0 mi North 6.9 mph - N/A   Scattered Clouds
10:39 PM 28.4 °F 20.4 °F 23.0 °F 80% 29.15 in 10.0 mi North 8.1 mph - N/A   Mostly Cloudy
10:53 PM 27.0 °F 18.7 °F 21.9 °F 81% 29.15 in 10.0 mi North 8.1 mph - N/A   Mostly Cloudy
11:53 PM 26.1 °F 19.4 °F 21.9 °F 84% 29.16 in 10.0 mi NNE 5.8 mph - N/A   Overcast